Flag Weather past 2 weeks in Neumünster, Schleswig-Holstein, Germany

Now
36 °F

Clear.


Feels Like: 31 °F
Forecast: 30 / 37 °F
Wind: 6 mph from Southeast

Location: Itzehoe

Current Time: Nov 27, 2014 at 8:48:29 PM

Latest Report: Nov 27, 2014 at 8:00 PM


Visibility: 4 mi

Pressure: 29.96 "Hg

Humidity: 81%

Dew point: 31 °F

Location of NeumünsterLocation

Historic Weather in Neumünster — Graph

°F

Neumünster temperature yesterday

Maximum temperature yesterday: 42 °F (at 2:00 PM)
Minimum temperature yesterday: 30 °F (at 12:00 AM)
Average temperature yesterday: 36 °F

Past Weeks' High & Low Weather Summary

 TemperatureHumidityPressure
High53 °F (Nov 14, 5:00 PM)100% (Nov 13, 2:00 AM)30.40 "Hg (Nov 13, 2:00 AM)
Low30 °F (Nov 26, 12:00 AM)73% (Nov 24, 2:00 PM)29.58 "Hg (Nov 16, 5:00 PM)
Average43 °F93%30.04 "Hg
* Reported Nov 12 6:00 PM — Nov 27 6:00 PM, Neumünster, Weather by CustomWeather, © 2014

Note: Actual official high and low records may vary slightly from our data, if they occured in-between our weather recording intervals... More about our weather records

Advertising

Neumünster weather history for previous 24 hours

 ConditionsComfort  
Time TempWeatherWind HumidityBarometerVisibility
6:00 PM
Nov 27
37 °FPassing clouds.7 mph81%29.94 "Hg4 mi
5:00 PM38 °FPassing clouds.7 mph80%29.94 "Hg4 mi
3:00 PM38 °FSunny.5 mph80%29.94 "Hg4 mi
2:00 PM38 °FSunny.6 mph79%29.95 "Hg4 mi
12:00 PM38 °FSunny.7 mph79%29.96 "Hg4 mi
11:00 AM37 °FPassing clouds.7 mph82%29.98 "Hg4 mi
9:00 AM35 °FOvercast.7 mph89%29.98 "Hg3 mi
8:00 AM36 °FOvercast.6 mph88%29.98 "Hg3 mi
6:00 AM37 °FOvercast.7 mph88%29.99 "Hg3 mi
5:00 AM38 °FOvercast.7 mph88%30.00 "Hg3 mi
3:00 AM37 °FPassing clouds.6 mph91%30.01 "Hg3 mi
2:00 AM38 °FOvercast.7 mph91%30.04 "Hg4 mi
12:00 AM37 °FOvercast.5 mph91%30.07 "Hg4 mi
11:00 PM
Nov 26
37 °FOvercast.7 mph90%30.09 "Hg4 mi
9:00 PM38 °FPassing clouds.6 mph87%30.11 "Hg4 mi
8:00 PM39 °FOvercast.7 mph86%30.11 "Hg5 mi
Weather by CustomWeather, © 2014

See weather overviewHow to use our weather pages